Regional Weather Roundup
Issued by NWS

Home | Current Version | Previous Version | Graphics & Text | Print | Product List | Glossary On
Versions: 1 2 3 4 5 6 7 8 9 10 11 12 13 14 15 16 17 18 19 20 21 22 23 24 25 26 27 28 29 30 31 32 33 34 35 36 37 38 39 40 41 42 43 44 45 46 47 48 49 50
000
ASUS43 KMKX 230600
RWRWI

WISCONSIN REGIONAL WEATHER ROUNDUP
NATIONAL WEATHER SERVICE MILWAUKEE/SULLIVAN WI
1200 AM CST SUN NOV 23 2014

NOTE: "FAIR" INDICATES FEW OR NO CLOUDS BELOW 12,000 FEET WITH NO
SIGNIFICANT WEATHER AND/OR OBSTRUCTIONS TO VISIBILITY.

WIZ001-002-006>008-014>016-023>028-230700-
NORTHWEST WISCONSIN

CITY           SKY/WX    TMP DP  RH WIND       PRES   REMARKS
SUPERIOR ARPT  CLOUDY    34  33  94 E3        29.56F FOG
ASHLAND        CLOUDY    36  33  89 VRB3      29.59F
6HR MIN TEMP:  34; 6HR MAX TEMP:  36;

HAYWARD        CLOUDY    36  35  96 S8        29.57F FOG     WCI  30
6HR MIN TEMP:  34; 6HR MAX TEMP:  36;

SIREN          CLOUDY    38  37  97 SE8       29.54S FOG     WCI  32
CUMBERLAND     FOG       34  34 100 SE7       29.56S VSB 1/4 WCI  28
RICE LAKE      FOG       36  35  99 SE8       29.59F VSB 1/4 WCI  29
CHETEK         FOG       36  36 100 E3        29.59R VSB 1/2
LADYSMITH      FOG       37  37  97 SE6       29.61F VSB 1/2 WCI  33
6HR MIN TEMP:  35; 6HR MAX TEMP:  37;

EAU CLAIRE     FOG       37  37 100 SE6       29.58F VSB 1/4 WCI  32
MENOMONIE      FOG       36  36  99 E5        29.58F VSB<1/4 WCI  32
NEW RICHMOND   CLOUDY    38  38 100 SE8       29.54F FOG     WCI  32
OSCEOLA        CLOUDY    38  38 100 SE9       29.55F FOG     WCI  32
$$

WIZ003>005-009-010-017-018-230700-
NORTH CENTRAL WISCONSIN

CITY           SKY/WX    TMP DP  RH WIND       PRES   REMARKS
MANITOWISH WTR FOG       33  33 100 S8        29.62F VSB 1   WCI  26
ARBOR VITAE    FOG       37  36  96 S6        29.63F VSB 3/4 WCI  32
WOODRUFF       FOG       37  36  96 S6        29.63F VSB 3/4 WCI  32
RHINELANDER    FOG       34  34 100 CALM      29.65F VSB 1/2
6HR MIN TEMP:  33; 6HR MAX TEMP:  34;

EAGLE RIVER    FOG       34  34 100 S5        29.65F VSB 3/4 WCI  30
LAND O LAKES   CLOUDY    35  35 100 S6        29.65F FOG     WCI  30
PHILLIPS       CLOUDY    35  35 100 SE6       29.61F FOG     WCI  30
6HR MIN TEMP:  33; 6HR MAX TEMP:  35;

TOMAHAWK       FOG       34  33  96 CALM      29.66F VSB 3/4
MEDFORD        FOG       36  35  99 SE7       29.63F VSB 1/2 WCI  30
MERRILL        FOG       35  35 100 SE5       29.67F VSB 1/4 WCI  31
$$

WIZ029-030-035-036-043>047-230700-
CENTRAL WISCONSIN

CITY           SKY/WX    TMP DP  RH WIND       PRES   REMARKS
WAUSAU         FOG       36  36 100 E6        29.66F VSB 1/4 WCI  31
6HR MIN TEMP:  34; 6HR MAX TEMP:  36;

MOSINEE        SNOW      36  36 100 SE6       29.69S VSB 1/4 WCI  31
MARSHFIELD     FOG       39  39 100 S6        29.65F VSB 1/4 WCI  35
6HR MIN TEMP:  36; 6HR MAX TEMP:  40;

STEVENS POINT  FOG       38  38 100 CALM      29.69S VSB 1/4
WAUPACA        FOG       40  39  95 CALM      29.71F VSB 1/4
WAUTOMA        NOT AVBL
WISC RAPIDS    CLOUDY    44  42  93 S8        29.68F
6HR MIN TEMP:  37; 6HR MAX TEMP:  44;

CAMP DOUGLAS   CLOUDY    48  48 100 S10       29.65F FOG
$$

WIZ011>013-019>022-031-037>040-048>050-230700-
NORTHEAST WISCONSIN

CITY           SKY/WX    TMP DP  RH WIND       PRES   REMARKS
ANTIGO         FOG       33  33 100 S6        29.69F VSB 1/4 WCI  28
SHAWANO        FOG       37  36  94 CALM      29.73S VSB<1/4
OCONTO         CLOUDY    37  37 100 SE5       29.74F VSB 1/2 WCI  33
STURGEON BAY   CLOUDY    41  39  93 S8        29.75F
6HR MIN TEMP:  37; 6HR MAX TEMP:  41;

GREEN BAY      CLOUDY    42  41  96 S6        29.73F FOG
6HR MIN TEMP:  36; 6HR MAX TEMP:  42;

MANITOWOC      NOT AVBL
APPLETON       FOG       41  41 100 S8        29.73F VSB 1/4
CLINTONVILLE   FOG       37  37 100 CALM      29.71F VSB 1/2
OSHKOSH        CLOUDY    46  44  93 S13       29.72F FOG
6HR MIN TEMP:  41; 6HR MAX TEMP:  47;

$$

WIZ032>034-041-042-053>061-230700-
SOUTHWEST WISCONSIN

CITY           SKY/WX    TMP DP  RH WIND       PRES   REMARKS
LA CROSSE      CLOUDY    49  47  93 S16       29.62F FOG
6HR MIN TEMP:  39; 6HR MAX TEMP:  49;

SPARTA         CLOUDY    49  48  97 S8        29.65F FOG
VIROQUA        CLOUDY    49  49 100 S13       29.66S VSB 1
BOSCOBEL       CLOUDY    54  49  83 S9        29.69S
6HR MIN TEMP:  40; 6HR MAX TEMP:  54;

PRAIRIE DU CHI CLOUDY    53  48  85 SE7       29.68S
PLATTEVILLE    CLOUDY    50  48  93 S14       29.72F
$$

WIZ056-057-062-063-064-067-068-230700-
SOUTH CENTRAL WISCONSIN

CITY           SKY/WX    TMP DP  RH WIND       PRES   REMARKS
REEDSBURG      CLOUDY    51  49  95 S9        29.69F
BARABOO/DELLS  CLOUDY    49  48  95 S14       29.69F FOG
LONE ROCK      CLOUDY    56  48  74 S6        29.71S
MINERAL POINT  CLOUDY    52  48  87 S9        29.71F
MADISON        CLOUDY    49  46  90 S12       29.74F
6HR MIN TEMP:  45; 6HR MAX TEMP:  50;

MIDDLETON      CLOUDY    51  49  93 S12       29.73F
WATERTOWN      CLOUDY    46  46 100 S9        29.75F
MONROE         CLOUDY    48  46  93 S16       29.76R
JANESVILLE     CLOUDY    50  46  87 S13       29.78R
$$

WIZ051-052-058>065-066-070>072-230700-
SOUTHEAST WISCONSIN

CITY           SKY/WX    TMP DP  RH WIND       PRES   REMARKS
MILWAUKEE      PTCLDY    46  43  89 S7        29.79F
6HR MIN TEMP:  38; 6HR MAX TEMP:  48;

WAUKESHA       MOCLDY    45  45 100 S7        29.79F
MILWAUKEE/TIMM PTCLDY    46  43  87 SW10      29.79F
RACINE         MOCLDY    49  45  86 S9        29.82S
6HR MIN TEMP:  46; 6HR MAX TEMP:  50;

BURLINGTON     MOCLDY    47  45  93 SW10      29.80R
KENOSHA        MOCLDY    50  46  86 SW13      29.81R
6HR MIN TEMP:  47; 6HR MAX TEMP:  50;

FOND DU LAC    CLOUDY    48  45  89 S10       29.73F
6HR MIN TEMP:  41; 6HR MAX TEMP:  49;

SHEBOYGAN      CLOUDY    42  40  92 S7        29.76F FOG
6HR MIN TEMP:  40; 6HR MAX TEMP:  43;

WEST BEND      PTCLDY    48  45  87 S10       29.76F
JUNEAU         CLOUDY    46  45  97 SE10      29.76S FOG
$$

LSZ147-162-230700-
LAKE SUPERIOR

STATION/POSITION TIME  TEMP    WIND        PRES    WAVE
                       AIR SEA DIR/SP/G            HT/PER
                 (UTC) (F)     (DEG/KT/KT) (MB)    (FT/S)
DEVILS ISLAND    0500   36     130/  9/ 11 1002.7F
PORT WING        0540   36     110/  2/  3 1002.0F
SAXON HARBOR     0500   37      CALM  /  4 1003.0
$$

LMZ867-665-643>646-230700-
LAKE MICHIGAN

STATION/POSITION TIME  TEMP    WIND        PRES    WAVE
                       AIR SEA DIR/SP/G            HT/PER
                 (UTC) (F)     (DEG/KT/KT) (MB)    (FT/S)
CHAMBERS ISLAND  0500   39     150/  2/  4 1007.8F
N MID LAKE BUOY  0450   40 42  230/ 12/ 16 1008.8F   4/ 7
NORTHPORT PIER   0500   37     130/  2/ 13 1007.8F
SISTER BAY       0543          150/  2/  5   N/A
ALGOMA LAKESHORE 0413          220/  3/  4   N/A
KEWAUNEE LAKESHO 0500   39     180/  8/  8 1007.0F
SHEBOYGAN LAKESH 0500   44 36  180/ 11/ 11 1009.0F
PORT WASHINGTON  0500   38     260/  3/  3 1009.5
ATWATER BUOY     0500   45     240/  2/  2 1010.2F
MILWAUKEE LAKESH 0500   48     200/  7/  8   N/A
S MID LAKE BUOY  0450   46 43  200/ 12/ 14 1010.9S   2/ 4
KENOSHA   LAKESH 0500   51     210/  7/ 11 1009.8S
$$

TC  - TEMPERATURE IN CELSIUS
VSB - VISIBILITY IN STATUTE MILES
WCI - WIND CHILL INDEX
HX  - HEAT INDEX




USA.gov is the U.S. government's official web portal to all federal, state and local government web resources and services.